Regional Weather Roundup
Issued by NWS

Home | Current Version | Previous Version | Text Only | Print | Product List | Glossary Off
Versions: 1 2 3 4 5 6 7 8 9 10 11 12 13 14 15 16 17 18 19 20 21 22 23 24 25 26 27 28 29 30 31 32 33 34 35 36 37 38 39 40 41 42 43 44 45 46 47 48 49 50

748
ASUS45 KSLC 231210
RWRUT

UTAH REGIONAL WEATHER ROUNDUP
NATIONAL WEATHER SERVICE SALT LAKE CITY UT
500 AM MST MON JAN 23 2017

UTZ001>011-023>025-231300-

NORTHERN UTAH

CITY           SKY/WX    TMP DP  RH WIND       PRES   REMARKS
BRIGHAM CITY     N/A     35  32  88 CALM      29.57F
HILL AFB       MOCLDY    36  32  87 S21       29.52F WCI  24
LOGAN          LGT SNOW  29  29 100 NW5       29.55F FOG     WCI  24
OGDEN          CLOUDY    36  31  82 S16       29.53F WCI  26
SALT LAKE CITY CLOUDY    37  32  81 SE16      29.53F WCI  28
TOOELE VALLEY  MOCLDY    41  32  70 S20G28    29.51F
WENDOVER       CLOUDY    28  27  93 CALM      29.51F
HEBER CITY     FLURRIES  36  28  75 S8        29.55F WCI  29
WEST JORDAN    CLOUDY    36  35  96 S18G26    29.56F WCI  26

$$

UTZ011>015-024>027-231300-

CENTRAL/NORTHEAST UTAH

CITY           SKY/WX    TMP DP  RH WIND       PRES   REMARKS
PROVO AIRPORT  LGT RAIN  35  31  85 E3        29.60F
MOAB/CANYONLAN PTCLDY    33  28  81 CALM      29.71F
DELTA          CLOUDY    34  32  93 S14G21    29.58F WCI  24
PRICE          LGT SNOW  28  28 100 NE3       29.67F VSB 1
ROOSEVELT      SNOW      25  23  93 CALM      29.72F VSB 1/2
VERNAL         LGT SNOW  26  24  92 NW5       29.70F VSB 3/4 WCI  20

$$

UTZ013>016-019>022-027-231300-

SOUTHERN UTAH

CITY           SKY/WX    TMP DP  RH WIND       PRES   REMARKS
BRYCE CANYON   SNOW      26  23  88 MISG      29.69F VSB 1/2
CEDAR CITY     FLURRIES  32  31  96 SW21G26   29.62F WCI  20
MILFORD        MOCLDY    35  31  85 S25G31    29.59F WCI  23
ST GEORGE      CLOUDY    43  36  75 NE9       29.72F
HANKSVILLE     CLOUDY    37  32  81 MISG      29.73F
BLANDING       CLOUDY    30  30 100 SE12      29.94F WCI  20

$$

REGIONAL REPORTS     COLORADO/ARIZONA

CITY           SKY/WX    TMP DP  RH WIND       PRES   REMARKS
CRAIG, CO      CLOUDY    29  20  69 NE6       29.68F WCI  23
GRAND JUNCTION CLOUDY    37  29  72 SE16      29.75F WCI  28
RIFLE, CO      LGT SNOW  30  28  92 CALM      29.77F FOG
MONTROSE, CO   CLOUDY    28  26  92 S6        29.82F WCI  22
CORTEZ, CO     CLOUDY    31  26  82 CALM      29.92F
COLORADO CITY  LGT RAIN  36  36 100 SE9       29.77S WCI  29
PAGE, AZ       PTCLDY    41  28  60 S9G18     29.76F
GRAND CANYON   LGT SNOW  32  31  96 S22G33    29.80F FOG     WCI  19
KINGMAN, AZ    PTCLDY    48  37  65 S24G36    29.77F
FLAGSTAFF, AZ  LGT SNOW  29  28  96 SW16G25   29.88F FOG     WCI  17

$$

REGIONAL REPORTS    NEVADA/IDAHO/WYOMING

CITY           SKY/WX    TMP DP  RH WIND       PRES   REMARKS
LAS VEGAS, NV  LGT RAIN  49  42  77 S13G22    29.68R
ELY, NY        LGT SNOW  32  29  88 S12       29.47F FOG     WCI  23
ELKO, NV       LGT SNOW  32  31  96 S3        29.45F FOG
POCATELLO, ID  CLOUDY    31  28  89 NE8       29.55F WCI  23
BURLEY, ID     CLOUDY    31  28  89 CALM      29.48F
FORT BRIDGER,  LGT SNOW  19  19 100 CALM      29.62F
EVANSTON, WY   LGT SNOW  22  18  85 E10       29.55F FOG     WCI  11
ROCK SPRINGS,  CLOUDY    26  19  74 SE6       29.61F WCI  19

$$




USA.gov is the U.S. government's official web portal to all federal, state and local government web resources and services.